EW9733 Weather Reports


time (UTC)temp
F
wind
direction
speed
knots
gust
knots
rain 1hr
in
rain 24hr
in
rain mn
in
humidity
%
barometer
mb
20260831140059 70 84 0.9 2.6 0.00 0.09 0.01 70 1019.3
20260831134604 69 93 0.0 5.2 0.00 0.09 0.01 71 1019.4
20260831133051 68 124 0.0 2.6 0.00 0.09 0.01 78 1019.3
20260831131551 66 38 0.9 3.5 0.00 0.09 0.01 85 1019.2
20260831130050 65 53 0.0 2.6 0.00 0.09 0.01 92 1019.2
20260831124538 64 48 0.9 1.7 0.00 0.09 0.01 93 1019.1
20260831123043 63 51 0.0 7.0 0.00 0.09 0.01 93 1019.1
20260831121537 62 83 0.0 3.5 0.00 0.09 0.01 94 1018.8
20260831120055 61 190 0.0 0.0 0.00 0.09 0.01 93 1018.9
20260831114532 61 193 0.0 0.9 0.00 0.09 0.01 93 1018.8
20260831113026 60 193 0.0 0.9 0.00 0.09 0.01 93 1018.6
20260831111525 60 193 0.0 0.0 0.01 0.09 0.01 92 1018.7
20260831110022 60 193 0.0 0.0 0.01 0.09 0.01 92 1018.4
20260831104531 60 193 0.0 0.0 0.01 0.09 0.01 92 1018.3
20260831103016 60 193 0.0 0.0 0.01 0.09 0.01 91 1018.2
20260831101536 60 193 0.0 0.0 0.00 0.08 0.00 91 1017.8
20260831100037 61 193 0.0 0.0 0.00 0.08 0.00 91 1017.7
20260831094530 61 193 0.0 0.0 0.00 0.08 0.00 91 1017.6
20260831093029 61 193 0.0 0.0 0.00 0.08 0.00 91 1017.5
20260831091528 62 193 0.0 0.0 0.00 0.08 0.00 91 1017.5
20260831090027 62 193 0.0 0.0 0.00 0.08 0.00 90 1017.4
20260831084527 62 193 0.0 0.0 0.00 0.08 0.00 90 1017.3
20260831083025 63 193 0.0 0.0 0.00 0.08 0.00 90 1017.1
20260831081533 63 193 0.0 0.0 0.00 0.08 0.00 90 1017.0
20260831080016 63 193 0.0 0.0 0.00 0.08 0.00 90 1016.8
20260831074517 64 193 0.0 0.0 0.00 0.08 0.00 90 1016.6
20260831073011 64 193 0.0 0.9 0.00 0.08 0.00 90 1016.3
20260831071510 65 194 0.0 0.0 0.00 0.08 0.00 90 1016.3
20260831070012 65 194 0.0 0.0 0.00 0.08 0.00 90 1016.2
20260831064505 66 194 0.0 0.0 0.00 0.08 0.00 90 1016.2
20260831063004 66 194 0.0 0.0 0.00 0.08 0.00 90 1016.2
20260831061502 67 194 0.0 0.0 0.00 0.08 0.00 90 1016.2
20260831060109 67 194 0.0 0.0 0.00 0.08 0.00 90 1016.1
20260831054559 67 194 0.0 0.0 0.00 0.08 0.00 89 1016.0
20260831053054 68 194 0.0 0.0 0.00 0.08 0.00 89 1015.7
20260831051616 68 194 0.0 0.0 0.00 0.08 0.00 89 1015.6
20260831050051 69 194 0.0 0.0 0.00 0.08 0.00 89 1015.5
20260831044549 69 194 0.0 0.0 0.00 0.08 0.00 89 1015.5
20260831043048 70 194 0.0 0.0 0.02 0.08 0.00 88 1015.6
20260831041549 70 194 0.0 0.0 0.04 0.08 0.00 88 1015.6
20260831040049 70 194 0.0 0.0 0.08 0.08 0.00 87 1015.5
20260831034542 71 194 0.0 0.9 0.08 0.08 0.08 87 1015.6
20260831033042 71 192 0.0 0.9 0.06 0.06 0.06 85 1015.8
20260831031546 72 190 0.0 0.9 0.04 0.04 0.04 83 1015.7
20260831030041 72 193 0.0 1.7 0.00 0.00 0.00 80 1015.8
20260831024540 72 279 0.0 0.9 0.00 0.00 0.00 78 1015.6
20260831023042 73 280 0.0 0.9 0.00 0.00 0.00 76 1015.6
20260831021552 73 280 0.0 0.9 0.00 0.00 0.00 75 1015.5
20260831020038 73 156 0.0 1.7 0.00 0.00 0.00 74 1015.5
20260831014538 73 184 0.0 1.7 0.00 0.00 0.00 72 1015.4
20260831013039 73 184 0.0 1.7 0.00 0.00 0.00 71 1015.3
20260831011540 73 53 0.0 1.7 0.00 0.00 0.00 69 1015.3
20260831010104 74 259 0.0 2.6 0.00 0.00 0.00 68 1015.3
20260831004547 74 236 0.0 2.6 0.00 0.00 0.00 67 1015.1
20260831003036 74 244 0.0 2.6 0.00 0.00 0.00 66 1015.1
20260831001551 74 155 0.0 1.7 0.00 0.00 0.00 64 1014.9
20260831000035 74 176 0.0 1.7 0.00 0.00 0.00 63 1014.7
20260830234534 75 215 0.0 2.6 0.00 0.00 0.00 63 1014.7
20260830233033 75 141 0.0 2.6 0.00 0.00 0.00 61 1014.7
20260830231535 76 178 0.0 5.2 0.00 0.00 0.00 60 1014.8
20260830230036 76 155 0.0 2.6 0.00 0.00 0.00 59 1014.7
20260830224539 77 128 0.0 2.6 0.00 0.00 0.00 59 1015.0
20260830223029 77 152 0.0 2.6 0.00 0.00 0.00 58 1015.0
20260830221529 78 258 0.0 4.3 0.00 0.00 0.00 56 1015.0
20260830220028 78 142 0.0 2.6 0.00 0.00 0.00 53 1015.1
20260830214528 78 225 0.0 2.6 0.00 0.00 0.00 51 1015.1
20260830213027 79 148 0.0 5.2 0.00 0.00 0.00 51 1015.2
20260830211527 79 313 0.9 7.8 0.00 0.00 0.00 48 1015.1
20260830210025 80 91 0.0 6.1 0.00 0.00 0.00 50 1015.1
20260830204523 80 320 0.9 3.5 0.00 0.00 0.00 48 1015.2
20260830203022 81 241 0.0 3.5 0.00 0.00 0.00 47 1015.4
20260830201521 81 241 0.0 3.5 0.00 0.00 0.00 47 1015.5
20260830200020 82 335 0.0 6.1 0.00 0.00 0.00 45 1015.5
20260830194519 83 333 0.0 2.6 0.00 0.00 0.00 45 1015.7
20260830193018 83 107 0.0 6.1 0.00 0.00 0.00 41 1015.8
20260830191515 84 355 0.0 4.3 0.00 0.00 0.00 41 1015.8
20260830190019 83 306 0.9 7.0 0.00 0.00 0.00 45 1016.0
20260830184514 83 93 0.0 2.6 0.00 0.00 0.00 45 1016.1
20260830183013 83 304 0.9 4.3 0.00 0.00 0.00 45 1016.3
20260830181509 84 272 0.9 4.3 0.00 0.00 0.00 43 1016.5
20260830180009 84 355 0.9 7.0 0.00 0.00 0.00 43 1016.7
20260830174517 84 198 0.0 5.2 0.00 0.00 0.00 43 1016.5
20260830173007 84 168 0.0 6.1 0.00 0.00 0.00 47 1016.7
20260830171506 85 5 1.7 6.1 0.00 0.00 0.00 44 1016.7
20260830170004 83 14 1.7 7.0 0.00 0.00 0.00 46 1017.0
20260830164502 84 274 1.7 7.0 0.00 0.00 0.00 43 1016.9
20260830163001 83 239 1.7 7.0 0.00 0.00 0.00 48 1017.2
20260830161632 84 355 1.7 6.1 0.00 0.00 0.00 45 1017.1
20260830154556 84 333 0.9 7.0 0.00 0.00 0.00 46 1017.4
20260830153052 83 334 0.9 9.6 0.00 0.00 0.00 49 1017.6
20260830151551 82 339 0.9 3.5 0.00 0.00 0.00 48 1017.6
20260830150049 82 344 0.9 4.3 0.00 0.00 0.00 48 1017.9
20260830144544 81 262 0.0 3.5 0.00 0.00 0.00 51 1018.2
20260830143039 80 21 0.0 3.5 0.00 0.00 0.00 51 1018.2
20260830141534 79 275 0.0 2.6 0.00 0.00 0.00 54 1018.4